RH
64 56 57 62 64 88 83 65 58 60 50 49 54 53 65 65 55 76 79 78 78 72 62 60 50 30 27 27 28 28 26 29 34 35 37 40 40 42 34 40 40 45 49 58
62 56 53 51 53 68 77 69 65 61 50 57 61 64 66 58 73 80 79 76 75 80 73 56 49 36 35 37 35 34 37 42 46 46 45 43 43 42 48 47 54 57 59 56
79 75 64 59 35 40 51 50 48 54 39 49 55 57 55 78 82 79 74 74 72 70 58 50 50 43 40 41 37 39 38 44 51 45 42 48 49 47 55 54 55 62 61 56
88 76 96 58 51 54 50 52 52 49 55 71 70 65 75 83 81 78 72 71 69 67 67 64 54 43 46 42 38 39 44 54 52 43 47 50 46 55 60 58 58 60 71 77
86 78 59 56 54 64 73 81 60 51 58 68 66 71 83 82 84 76 69 65 62 58 59 63 67 66 62 45 43 42 56 60 56 56 61 56 58 64 60 59 63 71 79 79
84 83 79 80 71 76 88 89 72 47 52 68 81 84 86 89 83 81 72 66 61 58 60 73 70 58 54 44 47 61 63 67 59 58 61 62 62 63 56 43 50 56 33 15
86 83 73 70 63 87 94 94 94 91 90 87 84 84 94 91 95 94 85 72 64 60 64 67 66 64 54 61 66 68 71 66 64 65 66 58 39 26 24 23 16 11 10 8
88 87 81 61 65 95 96 95 96 92 94 84 81 82 82 90 95 98 95 80 66 63 63 66 69 71 73 72 71 70 68 69 67 48 28 24 24 25 20 13 11 10 9 8
76 74 71 66 59 76 90 96 94 94 92 94 88 84 86 86 90 94 98 89 74 69 70 68 68 70 71 72 70 70 71 62 30 25 24 26 25 19 14 12 10 10 11 11
83 73 75 71 73 71 82 85 84 91 95 96 97 93 86 92 96 95 93 99 87 70 70 71 72 73 74 72 71 66 40 29 25 24 27 26 20 16 14 12 11 11 12 13
76 81 86 80 81 82 86 86 88 92 98 98 92 82 87 85 90 96 98 98 90 86 72 72 75 76 75 69 51 35 29 25 24 27 27 23 18 15 14 12 12 12 14 15
86 91 95 95 88 79 85 82 82 88 100 95 91 86 79 78 82 92 93 92 95 84 89 74 74 75 71 61 40 30 27 25 27 28 25 22 18 16 14 14 14 15 16 18
84 79 82 80 78 78 80 75 84 84 84 94 87 82 78 83 86 88 92 92 96 96 89 96 84 67 64 56 36 30 27 25 28 28 26 23 20 16 16 15 15 17 19 22
68 65 66 69 69 72 78 83 96 96 95 97 93 85 78 76 80 89 93 98 98 98 90 96 97 87 69 49 34 31 28 26 28 28 27 25 22 18 16 15 16 18 22 25
63 69 74 75 71 71 76 79 81 82 86 80 77 78 79 76 72 77 81 90 98 100 100 90 100 99 88 61 37 32 30 27 28 29 28 26 23 20 17 17 17 19 22 25
78 74 70 69 69 70 72 75 77 83 88 85 80 79 78 79 76 74 75 80 91 98 100 99 100 100 97 84 52 37 33 30 28 29 29 28 26 23 20 18 18 19 21 23
87 77 77 74 71 72 71 72 78 80 82 83 82 80 79 86 90 88 90 95 98 98 99 100 96 99 98 95 87 60 42 35 31 28 29 29 28 26 23 20 19 19 20 22
95 100 96 80 75 76 81 80 78 77 77 77 78 80 81 96 97 100 100 100 98 94 100 100 98 99 99 98 98 89 86 54 38 32 29 29 29 27 26 24 22 20 20 21
99 99 95 80 72 78 88 80 70 73 78 79 83 88 89 94 98 100 99 98 100 98 95 98 99 99 99 100 98 97 94 81 55 41 44 39 30 29 28 26 25 23 22 22
87 92 89 77 85 94 95 97 95 100 96 85 78 90 93 95 93 97 97 100 97 94 96 93 89 99 100 99 98 97 96 96 94 83 85 60 36 33 30 28 26 25 24 23
97 98 98 97 97 98 99 100 100 95 98 100 93 86 93 95 96 97 98 98 98 98 99 99 98 99 98 98 98 98 98 98 97 96 96 90 86 42 33 31 28 25 25 26
96 95 93 91 88 86 86 89 92 91 89 92 96 98 98 98 99 98 96 97 98 98 100 98 98 98 98 98 97 97 97 98 97 96 96 82 66 62 41 36 33 30 55 93
78 82 85 86 86 84 81 79 77 76 73 69 68 66 68 77 96 99 99 97 97 97 96 98 98 97 97 95 95 96 97 96 97 97 96 93 94 87 89 93 86 87 95 96
87 88 89 89 90 88 84 76 75 72 55 43 38 38 42 50 59 74 86 97 97 97 98 98 97 97 96 96 97 97 97 97 97 97 96 96 95 95 95 93 92 95 97 96
95 92 90 88 87 85 84 81 65 37 16 6 3 3 5 12 19 32 48 57 64 73 80 86 89 93 93 97 98 99 99 98 98 98 100 98 98 97 96 96 96 96 99 99
50 52 57 54 44 40 28 13 5 4 4 3 3 2 2 2 2 2 3 7 17 34 50 61 65 65 67 87 99 100 100 99 98 99 98 98 97 97 97 96 96 96 97 95
22 20 17 12 8 7 6 6 5 4 3 3 3 3 3 3 2 2 2 2 2 2 2 4 11 23 42 64 90 96 98 100 100 99 98 98 97 97 96 96 96 96 97 96
Wind_Speed
6 5 5 5 10 18 24 22 11 6 11 9 22 16 9 19 15 16 18 22 20 20 18 14 13 11 10 10 11 12 13 13 14 16 18 18 19 19 17 20 21 20 22 25
9 11 10 13 13 14 20 22 27 16 16 17 17 17 18 18 14 17 20 19 17 19 15 13 13 12 11 10 10 9 11 12 12 15 18 18 14 13 17 16 17 13 16 14
3 5 9 14 16 22 20 18 20 28 26 16 21 22 19 15 15 16 15 13 14 13 11 12 14 14 14 12 11 10 12 13 14 13 12 8 10 10 10 11 10 12 11 10
3 3 2 4 6 6 17 19 18 14 18 10 18 16 13 13 14 12 11 10 10 9 10 11 14 16 16 15 13 12 13 10 10 7 6 6 7 7 9 7 9 9 8 10
4 7 10 14 8 7 5 6 17 16 16 17 17 13 10 12 11 10 9 9 10 11 12 14 15 16 17 15 13 11 10 8 6 7 5 4 4 4 7 10 13 12 12 12
6 2 3 4 5 4 6 3 4 14 15 14 11 9 5 6 7 8 9 10 11 12 12 12 10 5 6 7 7 7 6 5 1 3 7 6 6 7 7 9 11 9 9 10
9 6 7 10 8 7 5 7 9 10 11 9 9 8 7 6 8 9 9 10 9 9 6 5 5 5 5 5 4 3 5 6 6 5 4 4 4 5 5 5 5 6 7 8
12 7 9 8 6 11 9 8 11 12 10 9 7 9 9 8 8 9 10 8 8 7 5 2 2 2 3 5 6 8 8 6 4 2 1 2 2 3 3 3 4 6 8 11
10 6 7 6 10 14 15 10 10 11 11 11 10 8 8 9 10 10 9 7 7 6 4 2 2 3 5 6 7 6 5 3 2 1 1 1 2 3 3 4 6 8 10 12
8 8 14 14 11 12 15 15 15 16 16 15 12 9 9 9 10 9 8 10 7 6 5 2 2 3 3 4 4 4 3 2 3 3 4 3 4 4 5 6 8 10 12 14
18 14 11 11 9 10 13 15 16 17 17 16 15 13 13 12 12 13 10 9 9 7 6 5 6 6 6 6 6 5 5 5 6 6 5 5 5 5 7 7 9 11 13 15
10 9 11 13 11 12 14 16 15 16 19 17 15 15 14 13 13 13 15 15 12 8 8 6 8 8 9 9 9 8 8 8 8 7 6 6 7 8 9 9 10 12 15 17
23 22 20 18 18 18 20 19 18 15 19 17 15 15 14 13 12 13 14 14 13 13 11 9 8 10 12 12 11 10 10 11 10 9 9 8 9 10 11 11 12 14 16 18
15 18 23 23 22 19 17 21 21 19 17 21 19 18 19 18 14 14 13 14 14 16 13 13 13 11 12 14 14 13 12 12 12 12 11 11 11 12 12 13 13 15 17 18
16 19 22 26 25 24 22 20 20 23 23 22 22 21 22 22 20 18 19 17 18 18 16 15 14 16 13 15 16 15 14 14 13 13 13 13 13 14 14 15 15 17 18 19
19 21 24 25 27 27 26 25 23 21 24 25 26 25 25 24 23 22 22 20 22 18 17 16 18 18 17 16 17 17 17 16 15 15 15 15 15 16 16 17 17 18 19 21
25 25 24 22 20 21 22 25 27 27 27 27 26 26 26 25 22 20 20 20 21 20 19 19 15 19 22 19 18 18 18 17 17 16 17 17 17 17 18 19 19 20 21 23
22 23 23 21 21 21 20 21 23 24 26 28 30 30 28 23 22 19 17 19 21 21 23 20 21 21 24 24 22 20 19 19 18 18 18 18 18 19 20 20 21 22 23 24
17 17 16 14 15 15 15 16 18 20 22 23 22 23 24 22 22 20 21 20 20 22 22 25 22 25 25 29 28 23 21 20 20 19 19 20 20 20 21 22 23 23 24 25
7 9 11 11 10 10 12 12 12 14 16 20 22 24 23 24 24 25 23 20 23 21 23 25 23 25 26 31 33 28 26 23 21 22 23 21 20 22 23 24 24 25 26 27
8 10 11 8 5 2 1 4 6 8 10 11 14 19 21 23 27 25 26 24 22 22 25 28 29 31 31 30 34 33 29 27 26 24 25 25 21 23 25 25 25 25 26 27
7 7 7 6 5 5 7 9 10 10 10 8 5 6 11 17 21 24 26 24 23 23 24 25 27 27 28 29 27 28 31 30 30 27 25 22 23 24 24 26 27 27 31 37
5 4 4 4 5 6 8 9 10 11 11 12 12 12 10 10 10 13 16 18 18 18 18 15 15 15 16 16 18 21 25 28 29 29 27 27 27 27 28 28 30 36 38 35
10 11 12 13 14 15 16 17 18 19 21 23 23 22 20 18 15 14 12 12 13 13 15 18 20 20 21 22 22 23 24 27 29 31 30 28 29 31 32 32 36 35 34 33
17 18 19 20 21 21 22 22 23 25 23 20 18 18 19 20 21 22 21 20 19 20 22 23 23 21 22 21 22 23 25 29 31 32 31 33 33 34 33 34 35 32 30 30
15 17 19 20 21 21 21 19 18 16 16 16 16 16 16 16 17 18 21 24 26 27 27 27 26 26 26 25 24 26 27 28 29 30 32 32 34 33 32 32 32 30 30 29
16 17 18 18 17 17 16 16 16 15 15 15 16 16 16 17 17 18 19 20 21 22 24 27 29 30 31 29 28 30 31 29 29 29 29 31 32 31 31 30 31 29 29 28
Wind_Direction
232 258 256 250 231 214 227 222 205 195 206 211 218 233 238 259 288 297 297 301 300 298 293 268 257 256 260 268 274 279 284 291 295 293 295 290 291 296 286 286 288 291 296 305
257 263 271 264 250 238 237 235 231 216 196 163 180 214 246 268 282 289 294 292 291 295 280 261 250 250 259 270 276 287 295 294 300 298 295 289 299 299 287 282 294 297 301 317
263 268 294 280 260 242 241 244 239 229 232 224 223 235 253 268 281 293 294 292 296 296 276 270 256 254 258 266 269 275 292 292 300 303 304 299 310 315 283 315 301 304 310 332
226 264 272 265 292 264 239 239 235 235 214 201 231 238 256 263 282 291 295 300 309 300 286 278 261 255 258 259 264 275 296 291 305 327 320 328 331 309 307 340 353 354 0 12
214 224 278 283 277 239 225 257 239 221 206 207 226 250 249 270 279 290 301 301 305 307 297 282 278 262 258 261 266 278 281 283 308 314 299 342 26 49 58 56 51 51 58 60
196 255 256 250 294 210 172 211 188 195 200 215 227 227 243 271 295 305 315 305 309 314 310 288 280 257 259 259 252 262 253 259 267 106 101 91 79 65 48 56 64 63 51 36
219 243 263 276 277 195 188 201 185 183 192 211 212 231 244 275 298 306 320 325 320 328 325 319 312 262 230 226 227 215 178 150 135 112 101 77 57 54 50 55 58 54 40 21
214 227 254 238 240 206 220 212 206 205 204 209 222 235 248 262 282 301 304 326 323 327 337 345 352 236 197 168 151 147 146 143 125 109 83 65 38 19 17 28 23 12 4 358
208 251 230 249 257 234 230 226 233 231 222 222 219 236 247 259 277 295 298 305 320 302 326 20 63 111 134 140 142 152 155 154 141 241 275 314 322 324 337 340 345 351 350 346
243 245 247 262 267 252 244 246 244 248 246 237 229 242 249 263 262 268 288 307 313 314 289 282 250 221 200 203 192 195 209 219 225 246 264 277 288 301 316 323 335 339 336 335
238 236 262 264 264 256 240 248 253 255 247 242 248 254 255 253 256 260 268 295 316 310 281 261 256 253 248 245 246 236 238 249 251 251 258 272 285 300 305 314 324 326 329 332
238 241 232 246 260 270 258 260 259 254 246 247 251 254 257 259 259 258 261 269 268 293 287 280 262 261 264 263 259 255 255 251 252 259 264 275 287 292 297 310 318 323 325 328
237 239 247 256 267 264 261 262 254 259 244 243 251 257 263 263 265 266 265 272 272 267 290 269 277 262 259 258 255 260 263 263 264 266 271 277 281 287 296 304 312 318 322 325
244 258 252 250 259 266 269 260 255 249 247 244 252 257 263 265 267 273 276 267 264 275 276 252 261 280 265 259 253 252 256 259 264 270 274 278 282 285 290 296 304 311 315 319
263 258 255 253 262 264 260 262 258 250 251 249 252 256 261 266 266 267 269 267 268 272 283 273 260 263 267 259 255 254 253 255 261 267 272 276 278 282 288 293 299 305 311 316
270 263 258 258 261 261 256 253 254 251 247 249 253 255 258 263 267 268 268 267 265 268 269 275 258 263 261 261 254 253 255 257 259 264 269 273 278 282 286 291 296 302 307 310
264 264 261 259 256 252 256 257 253 254 254 255 256 259 258 259 263 270 269 265 253 255 262 277 258 263 260 260 261 255 255 258 261 263 267 272 277 281 285 290 295 300 304 309
259 259 262 255 250 252 259 261 257 257 259 258 255 255 258 249 256 266 273 270 251 250 257 262 272 267 260 262 266 256 254 257 259 262 267 272 278 283 287 291 295 299 302 305
250 252 253 248 252 260 268 267 260 258 254 252 254 253 251 241 249 254 265 262 259 257 261 259 255 263 259 262 255 260 258 257 259 262 268 273 279 284 287 290 293 296 300 302
242 255 255 250 239 258 264 270 276 284 270 255 251 249 247 244 247 251 251 266 258 257 256 259 263 263 266 259 252 255 255 257 262 266 268 269 277 283 286 289 292 295 298 302
131 126 116 107 105 110 120 272 282 285 278 278 258 250 250 247 255 256 263 262 261 264 261 263 265 268 265 260 255 248 254 263 270 275 272 266 269 280 285 289 292 295 298 302
111 103 99 88 74 48 30 28 30 29 28 20 342 311 269 261 262 262 265 266 265 266 268 270 270 267 263 260 257 247 248 256 265 274 276 270 272 278 285 291 294 292 290 295
220 227 243 268 287 298 304 308 310 310 308 307 305 304 307 314 299 268 266 263 265 263 266 261 264 263 262 258 254 253 251 252 256 271 272 271 270 274 278 281 283 284 299 303
254 259 266 274 280 286 290 292 293 295 298 295 289 284 281 279 278 285 289 277 272 268 267 265 268 267 267 266 267 272 268 262 263 268 276 276 280 282 284 287 292 303 307 306
264 268 273 279 284 289 292 293 294 295 294 292 290 285 279 273 268 267 266 266 266 266 267 269 268 263 264 268 269 273 275 273 268 273 275 273 275 286 287 289 295 304 306 299
284 282 282 285 287 287 287 289 292 294 295 296 295 292 288 283 278 274 271 269 268 267 267 268 270 272 269 265 264 265 266 270 271 272 273 276 277 285 288 291 295 301 298 297
290 290 289 288 288 288 290 292 294 296 297 296 296 297 296 295 291 287 283 280 278 276 275 274 273 272 271 269 266 263 263 266 270 273 275 279 279 283 287 289 292 298 297 294